Home > Weather > Steinbach > Past weeks

Flag for Canada Weather for the Past 2 Weeks in Steinbach, Manitoba, Canada

Now
47 °F

Cool.


Feels Like: 47 °F
Forecast: 38 / 69 °F
Wind: 1 mph from Northeast

Location: Winnipeg The Forks Man

Current Time: May 4, 2016 at 8:41:19 AM

Latest Report: May 4, 2016 at 8:00 AM


Visibility: N/A

Pressure: 30.11 "Hg

Humidity: 63%

Dew Point: 35 °F

Location of SteinbachLocation

Historic Weather in Steinbach — Graph

°F

Steinbach Temperature Yesterday

Maximum temperature yesterday: 62 °F (at 12:00 AM)
Minimum temperature yesterday: 48 °F (at 11:00 PM)
Average temperature yesterday: 56 °F

High & Low Weather Summary for the Past Weeks

 TemperatureHumidityPressure
High72 °F (May 2, 5:00 PM)94% (Apr 20, 7:00 AM)30.39 "Hg (Apr 20, 7:00 AM)
Low29 °F (Apr 22, 6:00 AM)17% (Apr 28, 2:00 PM)29.79 "Hg (May 3, 4:00 AM)
Average49 °F43%30.12 "Hg
* Reported Apr 19 6:00 AM — May 4 6:00 AM, Steinbach, Weather by CustomWeather, © 2016

Note: Actual official high and low records may vary slightly from our data, if they occured in-between our weather recording intervals... More about our weather records

Advertising

Steinbach Weather History for the Previous 24 Hours

Scroll right to see more
 ConditionsComfort  
Time TempWeatherWind HumidityBarometerVisibility
6:00 AM
Wed, May 4
40 °FChilly.1 mph80%30.09 "HgN/A
5:00 AM41 °FQuite cool.3 mph76%30.08 "HgN/A
4:00 AM40 °FQuite cool.3 mph80%30.07 "HgN/A
3:00 AM43 °FQuite cool.5 mph71%30.07 "HgN/A
2:00 AM44 °FQuite cool.5 mph69%30.06 "HgN/A
1:00 AM45 °FCool.3 mph65%30.06 "HgN/A
12:00 AM46 °FCool.3 mph62%30.05 "HgN/A
11:00 PM
Tue, May 3
48 °FCool.3 mph59%30.04 "HgN/A
10:00 PM49 °FCool.3 mph58%30.04 "HgN/A
9:00 PM51 °FCool.6 mph52%30.03 "HgN/A
8:00 PM54 °FCool.7 mph47%30.01 "HgN/A
7:00 PM57 °FRefreshingly cool.9 mph42%30.01 "HgN/A
6:00 PM57 °FRefreshingly cool.10 mph40%30.00 "HgN/A
5:00 PM58 °FRefreshingly cool.12 mph41%29.99 "HgN/A
4:00 PM56 °FRefreshingly cool.10 mph45%29.97 "HgN/A
3:00 PM59 °FRefreshingly cool.12 mph41%29.96 "HgN/A
2:00 PM59 °FRefreshingly cool.13 mph36%29.94 "HgN/A
1:00 PM60 °FRefreshingly cool.12 mph31%29.94 "HgN/A
12:00 PM59 °FRefreshingly cool.12 mph30%29.93 "HgN/A
11:00 AM57 °FRefreshingly cool.13 mph35%29.92 "HgN/A
10:00 AM56 °FRefreshingly cool.10 mph35%29.92 "HgN/A
9:00 AM54 °FCool.7 mph42%29.90 "HgN/A
8:00 AM52 °FCool.8 mph47%29.88 "HgN/A
Weather by CustomWeather, © 2016

See weather overviewHow to use our weather pages